This is the latest recevied weather packets stored in our database for station/object KG4ZVW. If no packets are shown the sender has not sent any weather packets the latest 10 day(s).
| Time | Temp. | Humidity | Pressure | Rain* | Wind** | Luminosity | Snow |
|---|---|---|---|---|---|---|---|
| 1777998220 | 27.78° C | 58% | 1016.1 hPa | 0 mm | - | 925 W/m² | - |
| 1777997914 | 27.78° C | 56% | 1016.1 hPa | 0 mm | - | 958 W/m² | - |
| 1777997609 | 28.33° C | 57% | 1016.1 hPa | 0 mm | - | 949 W/m² | - |
| 1777997304 | 28.33° C | 60% | 1016.2 hPa | 0 mm | - | 933 W/m² | - |
| 1777996999 | 28.33° C | 59% | 1016.2 hPa | 0 mm | - | 888 W/m² | - |
| 1777996717 | 28.33° C | 56% | 1016.2 hPa | 0 mm | - | 935 W/m² | - |
| 1777996413 | 28.33° C | 58% | 1016.1 hPa | 0 mm | - | 870 W/m² | - |
| 1777996110 | 28.33° C | 58% | 1016.1 hPa | 0 mm | - | 872 W/m² | - |
| 1777995806 | 28.33° C | 61% | 1016.1 hPa | 0 mm | - | 886 W/m² | - |
| 1777995504 | 28.33° C | 59% | 1016.1 hPa | 0 mm | - | 824 W/m² | - |
| 1777995200 | 28.33° C | 58% | 1016.1 hPa | 0 mm | - | 809 W/m² | - |
| 1777994919 | 28.33° C | 58% | 1016.1 hPa | 0 mm | - | 853 W/m² | - |
| 1777994614 | 27.78° C | 60% | 1016.1 hPa | 0 mm | - | 865 W/m² | - |
| 1777994310 | 27.78° C | 61% | 1016.1 hPa | 0 mm | - | 861 W/m² | - |
| 1777994005 | 27.78° C | 59% | 1016.1 hPa | 0 mm | - | 842 W/m² | - |
| 1777993702 | 27.78° C | 60% | 1015.9 hPa | 0 mm | - | 802 W/m² | - |
| 1777993417 | 27.78° C | 61% | 1015.9 hPa | 0 mm | - | 789 W/m² | - |
| 1777993112 | 27.78° C | 62% | 1015.9 hPa | 0 mm | - | 775 W/m² | - |
| 1777992812 | 27.78° C | 60% | 1015.9 hPa | 0 mm | - | 765 W/m² | - |
| 1777992509 | 27.78° C | 59% | 1015.9 hPa | 0 mm | - | 759 W/m² | - |
| 1777992204 | 27.78° C | 61% | 1015.9 hPa | 0 mm | - | 744 W/m² | - |
| 1777991921 | 27.22° C | 61% | 1015.6 hPa | 0 mm | - | 724 W/m² | - |
| 1777991615 | 27.22° C | 59% | 1015.6 hPa | 0 mm | - | 717 W/m² | - |
| 1777991310 | 27.22° C | 61% | 1015.6 hPa | 0 mm | - | 703 W/m² | - |
| 1777991006 | 27.22° C | 60% | 1015.8 hPa | 0 mm | - | 686 W/m² | - |
* Rain latest hour (hover to see other rain measurements)
** Current wind speed in m/s (hover to see current wind gust speed)